User: anonymous   Login
Location: Caltech
(34.1382°N, 118.1253°W)
Time: 17:42:54
(UTC-08:00)
Language:

Iridium 62 - Orbit

View from above orbital plane
View from above orbital plane
View from above satellite
View from above satellite

Ground track
Ground track

The orbit data is extracted from the following two-line orbital elements,

1 25285U 98021A   14328.33880597  .00000539  00000-0  18530-3 0   238
2 25285 086.3978 255.0569 0002115 102.3330 257.8103 14.34219459870887
Epoch (UTC): 24 November 2014 08:07:52
Eccentricity: 0.0002115
inclination: 86.3978°
perigee height: 776 km
apogee height: 779 km
right ascension of ascending node: 255.0569°
argument of perigee: 102.3330°
revolutions per day: 14.34219459
mean anomaly at epoch: 257.8103°
orbit number at epoch: 87088

The dashed part of the orbit path shows where the satellite is in the earth's shadow,  

DLR